Location: B
(0.0000°N, 0.0000°E)
Time: 12:28:31
(UTC+02:00)

Daily predictions for brighter satellites

Satellite Brightness Start Highest point End
(mag) Time Altitude Azimuth Time Altitude Azimuth Time Altitude Azimuth
ARIANE 5 R/B 4.3 19:13:40 10° W 19:18:18 80° S 20:09:33 10° E
ARIANE 5 R/B 4.3 19:13:39 10° W 19:18:18 80° S 20:09:33 10° E
Maqsat-H 3.5 19:58:46 10° W 20:03:29 63° S 20:25:32 10° E
Cosmos 858 Rocket 4.4 20:24:56 10° S 20:30:05 70° ESE 20:35:14 10° NNE
Cosmos 1400 Rocket 2.8 20:28:20 10° S 20:32:28 75° E 20:36:32 10° N
BLOCK DM-SL R/B 3.6 20:27:39 10° WNW 20:32:56 49° N 20:36:54 10° ENE
Cosmos 990 Rocket 4.2 20:28:02 10° S 20:33:00 48° ESE 20:37:58 10° NNE
Cosmos 1943 Rocket 3.7 20:31:40 10° SE 20:34:30 14° ESE 20:37:18 10° ENE
Cosmos 1898 Rocket 3.7 20:30:22 10° SSW 20:35:36 80° WNW 20:40:52 10° N
Cosmos 2344 4.5 20:28:51 10° S 20:36:39 29° ESE 20:43:17 10° ENE
SWIFT 2.8 20:39:49 10° WSW 20:43:57 59° NNW 20:48:05 10° ENE
CZ-3C R/B 1.0 20:46:40 10° W 20:49:08 32° NNW 20:50:40 10° NE
Cosmos 1470 Rocket 3.9 20:47:12 10° SSE 20:51:30 45° E 20:55:45 10° NNE
Cosmos 773 Rocket 4.2 20:47:41 10° N 20:52:47 52° ENE 20:57:53 10° SSE
METEOR-M 4.3 20:51:20 10° S 20:56:40 80° WSW 21:02:00 10° NNW
Tsikada Rocket 4.3 20:51:51 10° SSE 20:57:51 46° E 21:03:44 10° NNE
Cosmos 2369 Rocket 2.2 20:53:18 10° S 20:58:48 58° ESE 21:04:18 10° NNE
CSL-04 DEB 4.3 20:58:41 10° SSE 21:02:41 90° NW 21:06:36 10° NNW
ARIANE 5 R/B 3.9 20:36:54 10° W 21:02:48 89° S 21:05:44 20° E
Cosmos 1892 3.7 21:00:45 16° SE 21:02:52 25° E 21:06:04 10° NE
Ariane H10+ 3.2 21:01:50 10° WSW 21:05:29 28° SSW 21:06:35 21° SSE
Cosmos 1315 Rocket 2.9 21:01:56 10° S 21:05:53 80° W 21:09:52 10° N
SL-27 R/B 2.4 21:03:39 10° NNW 21:07:12 87° WSW 21:10:41 11° S
COSMOS 2455 3.4 21:02:35 10° SSW 21:08:30 61° WNW 21:14:24 10° N
ASTRO E2 4.2 21:12:35 10° W 21:16:05 28° SSW 21:18:10 18° SSE
Orbus 7S 3.6 21:17:42 10° WNW 21:20:12 63° SSW 21:21:27 36° SE
Cosmos 2034 Rocket 4.2 21:24:08 10° NNE 21:29:54 43° E 21:31:55 33° SE
GPS 2-14 Rocket1 3.9 21:27:45 10° W 21:31:20 31° SSW 21:32:02 29° S
SJ-6B 2.6 21:31:05 35° S 21:32:35 81° WSW 21:36:19 10° NNW
ARIANE 5 R/B 2.5 21:30:11 10° W 21:34:10 42° SSW 21:34:10 42° SSW
Cosmos 1464 Rocket 3.9 21:29:25 10° N 21:35:47 77° E 21:41:16 15° S
CZ-3B DEB 4.1 21:32:11 10° NW 21:41:33 52° WSW 21:49:07 14° SSE
HJ-1C 3.7 21:41:25 62° SW 21:41:38 64° W 21:45:00 10° NNW
Meteor 2-10 Rocket 3.8 21:38:40 10° N 21:44:11 49° E 21:44:18 49° E
Sea Lan Dem Rocket 2.3 21:40:52 10° W 21:44:21 85° S 21:45:19 56° E
CENTAUR R/B 3.7 21:39:31 10° SW 21:44:36 37° WNW 21:49:55 10° N
ARIANE 5 R/B 3.5 21:39:33 10° W 21:44:51 46° S 21:44:56 46° S
Spot 2 Rocket 4.1 21:46:10 39° NE 21:46:10 39° NE 21:50:06 10° N
Delta 198 4.4 21:41:02 10° W 21:45:23 34° SSW 21:45:43 34° SSW
ALOS 3.9 21:41:30 10° SSW 21:45:40 33° WSW 21:49:50 10° NW
Cosmos 192 4.2 21:42:13 10° N 21:47:09 82° E 21:47:53 65° SSE
Cosmos 2346 Rocket 4.3 21:43:39 10° S 21:49:44 89° W 21:55:46 10° N
Meteor 2-3 Rocket 4.1 21:46:58 10° SSW 21:52:41 63° W 21:58:20 10° N
Sylda 4400 4.0 21:46:57 10° W 21:58:04 86° S 21:58:34 75° ESE
Centaur AC-42 3.9 21:56:06 10° SW 21:58:18 18° SSW 21:58:18 18° SSW
Resurs 01 Rocket 2.4 22:01:48 45° N 22:01:48 45° N 22:04:54 10° N
Cosmos 2242 Rocket 4.2 22:01:23 10° NNW 22:05:08 55° NW 22:05:08 55° NW
ATLAS 2A CENTAUR R/B 3.9 22:01:03 10° WNW 22:07:42 73° SSW 22:15:07 40° SE
Cosmos 2082 Rocket 2.2 22:06:36 10° NNW 22:12:15 75° WSW 22:12:16 75° WSW
Cosmos 372 Rocket 4.4 22:13:11 58° WSW 22:13:38 60° WNW 22:18:41 10° N
Cosmos 1943 Rocket 3.4 22:12:45 10° SW 22:17:58 39° WNW 22:23:09 10° N
Cosmos 1833 Rocket 3.0 22:13:57 10° NNW 22:19:06 63° W 22:19:06 63° W
Ariane H10+ 3.3 22:22:10 10° W 22:27:42 32° NW 22:27:42 32° NW
ARIANE 5 R/B 4.3 22:31:24 10° WSW 22:32:00 12° WSW 22:32:00 12° WSW
Intelsat 5-1 Rocket 4.3 22:54:59 10° WSW 23:05:24 47° W 23:05:24 47° W
